#timestamp,LO_Frequency,Hit 
1500728415.8,286046278.5,N
1500728435.6,286046284.4,N
1500728455.5,286046281.0,N
1500728475.3,286046284.1,N
1500728495.1,286046281.8,N
1500728515.9,286046281.0,N
1500728535.7,286046284.3,N
1500728555.5,286046282.1,N
1500728575.4,286046284.3,N
1500728595.2,286046282.0,N
1500728615.1,286046284.1,N
1500728616.0,286046284.1,N
1500728635.8,286046282.1,N
1500728655.6,286046282.7,N
1500728675.5,286046282.4,N
1500728695.3,286046281.6,N
1500728715.2,286046284.3,N
1500728735.9,286046285.6,N
1500728755.7,286046284.2,N
1500728775.6,286046288.8,N
1500728795.4,286046285.1,N
1500728815.2,286046283.6,N
1500728835.1,286046283.0,N
1500728836.0,286046283.0,N
1500728855.8,286046285.6,N
1500728875.7,286046283.7,N
1500728895.5,286046282.9,N
1500728915.3,286046282.9,N
1500728935.2,286046281.3,N
1500728955.0,286046281.8,N
1500728955.9,286046281.8,N
1500728975.8,286046283.3,N
1500728995.6,286046286.0,N
1500729015.4,286046285.1,N
1500729035.3,286046284.7,N
1500729055.1,286046281.6,N
1500729075.8,286046287.2,N
1500729095.7,286046287.3,N
1500729115.5,286046285.3,N
1500729135.4,286046283.0,N
1500729155.2,286046283.4,N
1500729175.0,286046281.7,N
1500729175.9,286046281.7,N
1500729195.8,286046281.3,N
1500729215.6,286046283.6,N
1500729235.5,286046283.0,N
1500729255.3,286046287.6,N
1500729275.1,286046287.4,N
1500729295.9,286046284.5,N
1500729315.7,286046284.9,N
1500729335.5,286046285.5,N
1500729355.4,286046285.5,N
1500729375.2,286046285.4,N
1500729395.1,286046284.6,N
1500729396.0,286046284.6,N
1500729415.8,286046284.7,N
1500729435.6,286046287.4,N
1500729455.5,286046286.7,N
1500729475.3,286046288.6,N
1500729495.1,286046289.1,N
1500729515.9,286046288.9,N
1500729535.7,286046286.6,N
1500729555.6,286046286.7,N
1500729575.4,286046286.8,N
1500729595.2,286046288.2,N
1500729615.1,286046288.8,N
1500729616.0,286046288.8,N
1500729635.8,286046286.5,N
1500729655.7,286046286.3,N
1500729675.5,286046286.1,N
1500729695.3,286046288.5,N
1500729715.2,286046286.4,N
1500729735.0,286046288.1,N
1500729735.9,286046288.1,N
1500729755.8,286046289.0,N
1500729775.6,286046288.8,N
1500729795.4,286046288.4,N
1500729815.3,286046288.5,N
1500729835.1,286046289.8,N
1500729855.8,286046288.4,N
1500729875.7,286046287.9,N
1500729895.5,286046288.0,N
1500729915.4,286046287.9,N
1500729935.2,286046290.2,N
1500729955.0,286046287.8,N
1500729955.9,286046287.8,N
1500729975.8,286046289.1,N
1500729995.6,286046288.6,N
1500730015.4,286046286.6,N
1500730035.3,286046288.6,N
1500730055.1,286046288.0,N
1500730075.9,286046290.7,N
1500730095.7,286046284.6,N
1500730115.5,286046287.9,N
1500730135.4,286046287.7,N
1500730155.2,286046288.7,N
1500730175.1,286046290.8,N
1500730176.0,286046290.8,N
1500730195.8,286046290.5,N
1500730215.6,286046290.3,N
1500730235.5,286046288.9,N
1500730255.3,286046290.6,N
1500730275.2,286046290.1,N
1500730295.9,286046288.1,N
1500730315.7,286046287.7,N
1500730335.6,286046287.8,N
1500730355.4,286046290.4,N
1500730375.2,286046288.8,N
1500730395.1,286046288.8,N
1500730396.0,286046288.8,N
1500730415.8,286046289.1,N
1500730435.7,286046286.9,N
1500730455.5,286046286.7,N
1500730475.3,286046288.7,N
1500730495.2,286046288.3,N
1500730515.0,286046288.9,N
1500730515.9,286046288.9,N
1500730535.8,286046287.8,N
1500730555.6,286046290.5,N
1500730575.4,286046290.0,N
1500730595.3,286046290.8,N
1500730615.1,286046288.2,N
1500730635.8,286046290.3,N
1500730655.7,286046290.5,N
1500730675.5,286046292.0,N
1500730695.4,286046292.1,N
1500730715.2,286046290.1,N
1500730735.0,286046289.5,N
1500730735.9,286046289.5,N
1500730755.8,286046289.5,N
1500730775.6,286046291.2,N
1500730795.5,286046289.8,N
1500730815.3,286046292.0,N
1500730835.1,286046289.8,N
1500730855.9,286046292.4,N
1500730875.7,286046291.4,N
1500730895.6,286046289.6,N
1500730915.4,286046290.1,N
1500730935.2,286046292.4,N
1500730955.1,286046289.3,N
1500730956.0,286046289.3,N
1500730975.8,286046287.8,N
1500730995.6,286046290.2,N
1500731015.5,286046292.4,N
1500731035.3,286046291.2,N
1500731055.2,286046292.0,N
1500731075.9,286046291.9,N
1500731095.7,286046291.7,N
1500731115.6,286046291.7,N
1500731135.4,286046290.9,N
1500731155.3,286046291.3,N
1500731175.1,286046291.2,N
1500731176.0,286046291.2,N
1500731195.8,286046291.3,N
1500731215.7,286046292.1,N
1500731235.5,286046291.0,N
1500731255.3,286046292.7,N
1500731275.2,286046293.3,N
1500731295.0,286046291.3,N
1500731295.9,286046291.3,N
1500731315.8,286046292.9,N
1500731335.6,286046293.7,N
1500731355.4,286046292.8,N
1500731375.3,286046289.3,N
1500731395.1,286046291.1,N
1500731415.9,286046292.6,N
1500731435.7,286046295.4,N
1500731455.5,286046295.1,N
1500731475.4,286046292.9,N
1500731495.2,286046292.9,N
1500731515.1,286046292.6,N
1500731516.0,286046292.6,N
1500731535.8,286046293.1,N
1500731555.6,286046292.7,N
1500731575.5,286046292.7,N
1500731595.3,286046289.7,N
1500731615.1,286046293.3,N
1500731635.9,286046293.4,N
1500731655.7,286046295.2,N
1500731675.6,286046292.6,N
1500731695.4,286046293.4,N
1500731715.2,286046295.5,N
1500731735.1,286046294.3,N
1500731736.0,286046294.3,N
1500731755.8,286046295.3,N
1500731775.7,286046294.9,N
1500731795.5,286046294.9,N
1500731815.3,286046294.5,N
1500731835.2,286046294.2,N
1500731855.0,286046294.7,N
1500731855.9,286046294.7,N
1500731875.8,286046294.1,N
1500731895.6,286046296.7,N
1500731915.4,286046296.2,N
1500731935.3,286046296.0,N
1500731955.1,286046296.7,N
1500731975.8,286046296.6,N
1500731995.7,286046298.7,N
